| time (UTC) | temp F | wind direction | speed MPH | gust MPH | rain 1hr in | rain 24hr in | rain mn in | humidity % | barometer mb |
| 20260504023836 | 60 | 350 | 1.0 | 3.0 | 0.00 | 0.00 | 0.00 | 26 | 1013.2 |
| 20260504023330 | 60 | 335 | 0.0 | 3.0 | 0.00 | 0.00 | 0.00 | 26 | 1013.2 |
| 20260504023026 | 60 | 343 | 0.0 | 2.0 | 0.00 | 0.00 | 0.00 | 25 | 1013.8 |
| 20260504021812 | 61 | 339 | 1.0 | 3.0 | 0.00 | 0.00 | 0.00 | 24 | 1013.0 |
| 20260504021526 | 61 | 341 | 0.0 | 8.0 | 0.00 | 0.00 | 0.00 | 24 | 1013.5 |
| 20260504021306 | 61 | 340 | 2.0 | 7.0 | 0.00 | 0.00 | 0.00 | 24 | 1013.1 |
| 20260504020800 | 62 | 323 | 4.0 | 7.0 | 0.00 | 0.00 | 0.00 | 24 | 1013.2 |
| 20260504020026 | 62 | 266 | 4.0 | 11.0 | 0.00 | 0.00 | 0.00 | 23 | 1013.8 |
| 20260504015748 | 62 | 298 | 3.0 | 10.0 | 0.00 | 0.00 | 0.00 | 23 | 1013.2 |
| 20260504015242 | 62 | 280 | 2.0 | 7.0 | 0.00 | 0.00 | 0.00 | 22 | 1013.2 |
| 20260504014737 | 62 | 325 | 1.0 | 5.0 | 0.00 | 0.00 | 0.00 | 22 | 1013.1 |
| 20260504014539 | 62 | 281 | 2.0 | 6.0 | 0.00 | 0.00 | 0.00 | 21 | 1013.6 |
| 20260504014237 | 62 | 285 | 1.0 | 5.0 | 0.00 | 0.00 | 0.00 | 22 | 1013.0 |
| 20260504013739 | 62 | 297 | 1.0 | 5.0 | 0.00 | 0.00 | 0.00 | 22 | 1012.9 |
| 20260504013237 | 63 | 319 | 2.0 | 6.0 | 0.00 | 0.00 | 0.00 | 21 | 1012.9 |
| 20260504013032 | 62 | 290 | 0.0 | 9.0 | 0.00 | 0.00 | 0.00 | 21 | 1013.4 |
| 20260504012737 | 63 | 359 | 2.0 | 8.0 | 0.00 | 0.00 | 0.00 | 22 | 1012.7 |
| 20260504012234 | 62 | 205 | 2.0 | 8.0 | 0.00 | 0.00 | 0.00 | 23 | 1012.9 |
| 20260504011735 | 63 | 347 | 1.0 | 5.0 | 0.00 | 0.00 | 0.00 | 23 | 1013.1 |
| 20260504011524 | 62 | 347 | 3.0 | 8.0 | 0.00 | 0.00 | 0.00 | 22 | 1013.5 |
| 20260504011236 | 63 | 342 | 1.0 | 7.0 | 0.00 | 0.00 | 0.00 | 24 | 1012.9 |
| 20260504010737 | 63 | 8 | 2.0 | 7.0 | 0.00 | 0.00 | 0.00 | 22 | 1012.9 |
| 20260504010235 | 62 | 351 | 1.0 | 4.0 | 0.00 | 0.00 | 0.00 | 23 | 1012.9 |
| 20260504010009 | 62 | 340 | 1.0 | 3.0 | 0.00 | 0.00 | 0.00 | 23 | 1013.4 |
| 20260504005234 | 63 | 46 | 2.0 | 6.0 | 0.00 | 0.00 | 0.00 | 23 | 1012.6 |
| 20260504004734 | 63 | 48 | 4.0 | 6.0 | 0.00 | 0.00 | 0.00 | 22 | 1012.5 |
| 20260504004513 | 63 | 57 | 3.0 | 6.0 | 0.00 | 0.00 | 0.00 | 23 | 1013.1 |
| 20260504004233 | 63 | 47 | 4.0 | 6.0 | 0.00 | 0.00 | 0.00 | 22 | 1012.5 |
| 20260504003735 | 63 | 29 | 3.0 | 8.0 | 0.00 | 0.00 | 0.00 | 22 | 1012.6 |
| 20260504003234 | 64 | 50 | 3.0 | 9.0 | 0.00 | 0.00 | 0.00 | 22 | 1012.7 |
| 20260504003028 | 64 | 20 | 2.0 | 10.0 | 0.00 | 0.00 | 0.00 | 22 | 1013.3 |
| 20260504002736 | 64 | 52 | 2.0 | 9.0 | 0.00 | 0.00 | 0.00 | 22 | 1012.7 |
| 20260504002236 | 65 | 58 | 2.0 | 5.0 | 0.00 | 0.00 | 0.00 | 21 | 1012.7 |
| 20260504001729 | 65 | 57 | 3.0 | 5.0 | 0.00 | 0.00 | 0.00 | 19 | 1012.9 |
| 20260504001503 | 64 | 53 | 3.0 | 6.0 | 0.00 | 0.00 | 0.00 | 19 | 1013.4 |
| 20260504001224 | 65 | 51 | 2.0 | 5.0 | 0.00 | 0.00 | 0.00 | 20 | 1012.7 |
| 20260504000717 | 65 | 91 | 3.0 | 7.0 | 0.00 | 0.00 | 0.00 | 20 | 1012.9 |
| 20260504000212 | 66 | 94 | 4.0 | 7.0 | 0.00 | 0.00 | 0.00 | 19 | 1012.7 |
| 20260504000005 | 65 | 136 | 4.0 | 8.0 | 0.00 | 0.00 | 0.00 | 18 | 1013.4 |
| 20260503235705 | 66 | 94 | 2.0 | 6.0 | 0.00 | 0.00 | 0.00 | 17 | 1012.7 |
| 20260503234529 | 66 | 130 | 0.0 | 8.0 | 0.00 | 0.00 | 0.00 | 18 | 1013.4 |
| 20260503234148 | 67 | 144 | 3.0 | 7.0 | 0.00 | 0.00 | 0.00 | 18 | 1012.9 |
| 20260503233136 | 67 | 173 | 2.0 | 6.0 | 0.00 | 0.00 | 0.00 | 18 | 1012.7 |
| 20260503233015 | 67 | 186 | 3.0 | 7.0 | 0.00 | 0.00 | 0.00 | 18 | 1013.4 |
| 20260503232630 | 67 | 169 | 2.0 | 4.0 | 0.00 | 0.00 | 0.00 | 19 | 1012.7 |
| 20260503232124 | 67 | 162 | 3.0 | 7.0 | 0.00 | 0.00 | 0.00 | 17 | 1012.7 |
| 20260503231617 | 68 | 178 | 2.0 | 7.0 | 0.00 | 0.00 | 0.00 | 17 | 1012.9 |
| 20260503231523 | 68 | 167 | 3.0 | 8.0 | 0.00 | 0.00 | 0.00 | 16 | 1013.5 |
| 20260503231111 | 68 | 182 | 2.0 | 5.0 | 0.00 | 0.00 | 0.00 | 17 | 1012.7 |
| 20260503230605 | 68 | 52 | 3.0 | 5.0 | 0.00 | 0.00 | 0.00 | 17 | 1012.7 |
| 20260503230059 | 68 | 103 | 2.0 | 6.0 | 0.00 | 0.00 | 0.00 | 16 | 1012.9 |
| 20260503230004 | 68 | 126 | 2.0 | 7.0 | 0.00 | 0.00 | 0.00 | 16 | 1013.5 |
| 20260503225553 | 68 | 150 | 1.0 | 6.0 | 0.00 | 0.00 | 0.00 | 17 | 1012.9 |
| 20260503225047 | 68 | 189 | 1.0 | 4.0 | 0.00 | 0.00 | 0.00 | 17 | 1013.1 |
| 20260503224541 | 68 | 305 | 2.0 | 4.0 | 0.00 | 0.00 | 0.00 | 16 | 1013.0 |
| 20260503224508 | 67 | 302 | 0.0 | 6.0 | 0.00 | 0.00 | 0.00 | 16 | 1013.6 |
| 20260503224035 | 68 | 341 | 2.0 | 5.0 | 0.00 | 0.00 | 0.00 | 16 | 1013.0 |
| 20260503223529 | 68 | 290 | 2.0 | 5.0 | 0.00 | 0.00 | 0.00 | 16 | 1013.0 |
| 20260503223023 | 68 | 118 | 2.0 | 7.0 | 0.00 | 0.00 | 0.00 | 18 | 1013.1 |
| 20260503223016 | 68 | 124 | 0.0 | 8.0 | 0.00 | 0.00 | 0.00 | 17 | 1013.7 |
| 20260503222011 | 68 | 186 | 2.0 | 7.0 | 0.00 | 0.00 | 0.00 | 17 | 1013.3 |
| 20260503221520 | 68 | 203 | 1.0 | 8.0 | 0.00 | 0.00 | 0.00 | 17 | 1013.8 |
| 20260503220959 | 68 | 157 | 3.0 | 8.0 | 0.00 | 0.00 | 0.00 | 18 | 1013.3 |
| 20260503220454 | 68 | 254 | 2.0 | 8.0 | 0.00 | 0.00 | 0.00 | 17 | 1013.5 |
| 20260503220023 | 68 | 288 | 1.0 | 4.0 | 0.00 | 0.00 | 0.00 | 15 | 1014.0 |
| 20260503215952 | 69 | 278 | 1.0 | 4.0 | 0.00 | 0.00 | 0.00 | 16 | 1013.6 |
| 20260503215455 | 69 | 49 | 2.0 | 6.0 | 0.00 | 0.00 | 0.00 | 15 | 1013.6 |
| 20260503214950 | 69 | 74 | 3.0 | 6.0 | 0.00 | 0.00 | 0.00 | 16 | 1013.7 |
| 20260503214506 | 68 | 55 | 2.0 | 7.0 | 0.00 | 0.00 | 0.00 | 16 | 1014.2 |
| 20260503214449 | 69 | 15 | 3.0 | 6.0 | 0.00 | 0.00 | 0.00 | 17 | 1013.8 |
| 20260503213949 | 69 | 0 | 3.0 | 6.0 | 0.00 | 0.00 | 0.00 | 17 | 1013.8 |
| 20260503213450 | 68 | 330 | 2.0 | 6.0 | 0.00 | 0.00 | 0.00 | 17 | 1014.0 |
| 20260503213012 | 67 | 53 | 1.0 | 6.0 | 0.00 | 0.00 | 0.00 | 18 | 1014.4 |
| 20260503212950 | 68 | 58 | 1.0 | 5.0 | 0.00 | 0.00 | 0.00 | 18 | 1014.1 |
| 20260503212449 | 67 | 64 | 1.0 | 4.0 | 0.00 | 0.00 | 0.00 | 17 | 1014.2 |
| 20260503211947 | 66 | 343 | 1.0 | 4.0 | 0.00 | 0.00 | 0.00 | 17 | 1014.3 |
| 20260503211518 | 66 | 285 | 0.0 | 7.0 | 0.00 | 0.00 | 0.00 | 18 | 1014.9 |
| 20260503211446 | 66 | 289 | 2.0 | 6.0 | 0.00 | 0.00 | 0.00 | 18 | 1014.4 |
| 20260503210947 | 66 | 103 | 4.0 | 9.0 | 0.00 | 0.00 | 0.00 | 17 | 1014.4 |
| 20260503210448 | 66 | 80 | 4.0 | 9.0 | 0.00 | 0.00 | 0.00 | 16 | 1014.6 |
| 20260503210026 | 66 | 13 | 2.0 | 9.0 | 0.00 | 0.00 | 0.00 | 16 | 1015.3 |
| 20260503205947 | 67 | 41 | 3.0 | 8.0 | 0.00 | 0.00 | 0.00 | 17 | 1014.7 |
| 20260503204944 | 67 | 89 | 3.0 | 7.0 | 0.00 | 0.00 | 0.00 | 17 | 1014.9 |
| 20260503204533 | 67 | 66 | 4.0 | 8.0 | 0.00 | 0.00 | 0.00 | 16 | 1015.5 |
| 20260503204444 | 67 | 46 | 3.0 | 7.0 | 0.00 | 0.00 | 0.00 | 16 | 1014.9 |
| 20260503203943 | 67 | 82 | 2.0 | 6.0 | 0.00 | 0.00 | 0.00 | 16 | 1015.1 |
| 20260503203443 | 67 | 71 | 2.0 | 4.0 | 0.00 | 0.00 | 0.00 | 16 | 1015.2 |
| 20260503203014 | 67 | 307 | 1.0 | 4.0 | 0.00 | 0.00 | 0.00 | 16 | 1015.7 |
| 20260503202944 | 67 | 68 | 2.0 | 4.0 | 0.00 | 0.00 | 0.00 | 18 | 1015.2 |
| 20260503202443 | 68 | 39 | 2.0 | 7.0 | 0.00 | 0.00 | 0.00 | 15 | 1015.3 |
| 20260503201516 | 69 | 247 | 2.0 | 8.0 | 0.00 | 0.00 | 0.00 | 14 | 1015.9 |
| 20260503201443 | 69 | 334 | 3.0 | 7.0 | 0.00 | 0.00 | 0.00 | 14 | 1015.4 |
| 20260503200944 | 69 | 291 | 4.0 | 9.0 | 0.00 | 0.00 | 0.00 | 16 | 1015.4 |
| 20260503200439 | 69 | 304 | 4.0 | 9.0 | 0.00 | 0.00 | 0.00 | 15 | 1015.7 |
| 20260503200019 | 68 | 329 | 3.0 | 10.0 | 0.00 | 0.00 | 0.00 | 16 | 1016.0 |
| 20260503195940 | 68 | 319 | 4.0 | 9.0 | 0.00 | 0.00 | 0.00 | 15 | 1015.5 |
| 20260503195438 | 68 | 298 | 3.0 | 6.0 | 0.00 | 0.00 | 0.00 | 15 | 1015.5 |
| 20260503194939 | 68 | 0 | 2.0 | 6.0 | 0.00 | 0.00 | 0.00 | 14 | 1015.7 |
| 20260503194525 | 68 | 89 | 1.0 | 9.0 | 0.00 | 0.00 | 0.00 | 15 | 1016.1 |
| 20260503194440 | 68 | 85 | 3.0 | 8.0 | 0.00 | 0.00 | 0.00 | 16 | 1015.7 |
| 20260503193940 | 68 | 37 | 3.0 | 8.0 | 0.00 | 0.00 | 0.00 | 16 | 1015.8 |
| 20260503193440 | 68 | 328 | 2.0 | 9.0 | 0.00 | 0.00 | 0.00 | 18 | 1015.9 |
| 20260503193034 | 67 | 325 | 3.0 | 10.0 | 0.00 | 0.00 | 0.00 | 16 | 1016.6 |
| 20260503192440 | 67 | 299 | 2.0 | 8.0 | 0.00 | 0.00 | 0.00 | 16 | 1016.0 |
| 20260503191940 | 67 | 50 | 2.0 | 6.0 | 0.00 | 0.00 | 0.00 | 16 | 1016.0 |
| 20260503191510 | 67 | 38 | 2.0 | 10.0 | 0.00 | 0.00 | 0.00 | 16 | 1016.8 |
| 20260503190440 | 68 | 29 | 3.0 | 9.0 | 0.00 | 0.00 | 0.00 | 16 | 1016.3 |
| 20260503190017 | 66 | 36 | 3.0 | 9.0 | 0.00 | 0.00 | 0.00 | 17 | 1017.0 |
| 20260503185941 | 67 | 45 | 3.0 | 8.0 | 0.00 | 0.00 | 0.00 | 18 | 1016.4 |
| 20260503185440 | 67 | 47 | 3.0 | 8.0 | 0.00 | 0.00 | 0.00 | 16 | 1016.5 |
| 20260503184941 | 67 | 33 | 3.0 | 12.0 | 0.00 | 0.00 | 0.00 | 16 | 1016.5 |
| 20260503184534 | 66 | 77 | 4.0 | 13.0 | 0.00 | 0.00 | 0.00 | 15 | 1017.4 |
| 20260503184438 | 67 | 316 | 3.0 | 12.0 | 0.00 | 0.00 | 0.00 | 16 | 1016.6 |
| 20260503183938 | 68 | 352 | 3.0 | 11.0 | 0.00 | 0.00 | 0.00 | 14 | 1016.9 |
| 20260503183439 | 68 | 283 | 4.0 | 10.0 | 0.00 | 0.00 | 0.00 | 16 | 1017.0 |
| 20260503183026 | 68 | 327 | 3.0 | 11.0 | 0.00 | 0.00 | 0.00 | 15 | 1017.7 |
| 20260503182938 | 68 | 349 | 3.0 | 10.0 | 0.00 | 0.00 | 0.00 | 16 | 1017.1 |
| 20260503182439 | 68 | 319 | 3.0 | 8.0 | 0.00 | 0.00 | 0.00 | 16 | 1017.1 |
| 20260503181939 | 67 | 359 | 3.0 | 8.0 | 0.00 | 0.00 | 0.00 | 17 | 1017.1 |
| 20260503181525 | 67 | 273 | 3.0 | 12.0 | 0.00 | 0.00 | 0.00 | 15 | 1017.8 |
| 20260503181439 | 67 | 287 | 2.0 | 11.0 | 0.00 | 0.00 | 0.00 | 17 | 1017.3 |
| 20260503180940 | 67 | 37 | 2.0 | 11.0 | 0.00 | 0.00 | 0.00 | 18 | 1017.3 |
| 20260503180021 | 65 | 110 | 1.0 | 11.0 | 0.00 | 0.00 | 0.00 | 16 | 1018.1 |
| 20260503175937 | 65 | 139 | 4.0 | 10.0 | 0.00 | 0.00 | 0.00 | 17 | 1017.5 |
| 20260503175438 | 66 | 297 | 3.0 | 8.0 | 0.00 | 0.00 | 0.00 | 14 | 1017.6 |
| 20260503174937 | 65 | 53 | 4.0 | 10.0 | 0.00 | 0.00 | 0.00 | 15 | 1017.6 |
| 20260503174519 | 64 | 311 | 3.0 | 11.0 | 0.00 | 0.00 | 0.00 | 15 | 1018.3 |
| 20260503173931 | 65 | 262 | 4.0 | 10.0 | 0.00 | 0.00 | 0.00 | 17 | 1017.9 |
| 20260503173425 | 64 | 257 | 4.0 | 12.0 | 0.00 | 0.00 | 0.00 | 18 | 1017.9 |
| 20260503173030 | 64 | 281 | 4.0 | 13.0 | 0.00 | 0.00 | 0.00 | 17 | 1018.5 |
| 20260503172919 | 64 | 2 | 4.0 | 12.0 | 0.00 | 0.00 | 0.00 | 18 | 1018.0 |
| 20260503172413 | 64 | 302 | 4.0 | 10.0 | 0.00 | 0.00 | 0.00 | 17 | 1017.9 |
| 20260503171526 | 64 | 281 | 2.0 | 11.0 | 0.00 | 0.00 | 0.00 | 18 | 1018.6 |
| 20260503171402 | 64 | 359 | 5.0 | 10.0 | 0.00 | 0.00 | 0.00 | 18 | 1018.1 |
| 20260503170856 | 64 | 318 | 5.0 | 9.0 | 0.00 | 0.00 | 0.00 | 19 | 1018.2 |
| 20260503170349 | 64 | 305 | 4.0 | 9.0 | 0.00 | 0.00 | 0.00 | 19 | 1018.2 |
| 20260503150244 | 61 | 278 | 4.0 | 11.0 | 0.00 | 0.00 | 0.00 | 25 | 1019.0 |
| 20260503110824 | 44 | 283 | 1.0 | 3.0 | 0.00 | 0.00 | 0.00 | 43 | 1018.2 |
| 20260503110319 | 44 | 306 | 1.0 | 3.0 | 0.00 | 0.00 | 0.00 | 44 | 1018.2 |
| 20260503100207 | 39 | 343 | 0.0 | 1.0 | 0.00 | 0.00 | 0.00 | 59 | 1018.2 |
| 20260503081524 | 37 | 312 | 0.0 | 1.0 | 0.00 | 0.00 | 0.00 | 60 | 1019.2 |
| 20260503081501 | 37 | 317 | 0.0 | 1.0 | 0.00 | 0.00 | 0.00 | 60 | 1018.7 |
| 20260503080449 | 37 | 317 | 0.0 | 0.0 | 0.00 | 0.00 | 0.00 | 60 | 1018.7 |
| 20260503072935 | 37 | 317 | 0.0 | 0.0 | 0.00 | 0.00 | 0.00 | 59 | 1019.1 |
| 20260503072435 | 38 | 317 | 0.0 | 0.0 | 0.00 | 0.00 | 0.00 | 58 | 1019.1 |
| 20260503071937 | 38 | 317 | 0.0 | 0.0 | 0.00 | 0.00 | 0.00 | 56 | 1019.2 |
| 20260503071524 | 38 | 312 | 0.0 | 0.0 | 0.00 | 0.00 | 0.00 | 55 | 1019.7 |
| 20260503071436 | 38 | 317 | 0.0 | 0.0 | 0.00 | 0.00 | 0.00 | 56 | 1019.2 |
| 20260503054915 | 40 | 246 | 0.0 | 0.0 | 0.00 | 0.00 | 0.00 | 54 | 1019.8 |
| 20260503054535 | 40 | 244 | 0.0 | 0.0 | 0.00 | 0.00 | 0.00 | 54 | 1020.4 |
| 20260503054408 | 40 | 246 | 0.0 | 0.0 | 0.00 | 0.00 | 0.00 | 54 | 1019.9 |
| 20260503053902 | 41 | 244 | 0.0 | 0.0 | 0.00 | 0.00 | 0.00 | 53 | 1019.9 |
| 20260503053356 | 41 | 244 | 0.0 | 0.0 | 0.00 | 0.00 | 0.00 | 51 | 1020.1 |
| 20260503053035 | 41 | 242 | 0.0 | 0.0 | 0.00 | 0.00 | 0.00 | 50 | 1020.6 |
| 20260503052850 | 41 | 244 | 0.0 | 0.0 | 0.00 | 0.00 | 0.00 | 51 | 1020.1 |
| 20260503052344 | 41 | 244 | 0.0 | 0.0 | 0.00 | 0.00 | 0.00 | 50 | 1020.1 |
| 20260503051529 | 40 | 242 | 0.0 | 0.0 | 0.00 | 0.00 | 0.00 | 51 | 1020.8 |
| 20260503050826 | 41 | 244 | 0.0 | 0.0 | 0.00 | 0.00 | 0.00 | 52 | 1020.2 |
| 20260503050320 | 41 | 244 | 0.0 | 0.0 | 0.00 | 0.00 | 0.00 | 50 | 1020.2 |
| 20260503050021 | 41 | 242 | 0.0 | 0.0 | 0.00 | 0.00 | 0.00 | 50 | 1020.9 |
| 20260503045814 | 41 | 244 | 0.0 | 0.0 | 0.00 | 0.00 | 0.00 | 50 | 1020.2 |
| 20260503045308 | 42 | 244 | 0.0 | 0.0 | 0.00 | 0.00 | 0.00 | 49 | 1020.3 |
| 20260503044524 | 42 | 242 | 0.0 | 0.0 | 0.00 | 0.00 | 0.00 | 46 | 1020.7 |
| 20260503043750 | 43 | 244 | 0.0 | 0.0 | 0.00 | 0.00 | 0.00 | 45 | 1020.1 |
| 20260503043244 | 44 | 244 | 0.0 | 0.0 | 0.00 | 0.00 | 0.00 | 44 | 1020.2 |
| 20260503043027 | 43 | 242 | 0.0 | 0.0 | 0.00 | 0.00 | 0.00 | 43 | 1020.8 |
| 20260503042738 | 44 | 244 | 0.0 | 0.0 | 0.00 | 0.00 | 0.00 | 43 | 1020.2 |
| 20260503042232 | 45 | 244 | 0.0 | 0.0 | 0.00 | 0.00 | 0.00 | 41 | 1020.2 |
| 20260503041726 | 45 | 244 | 0.0 | 0.0 | 0.00 | 0.00 | 0.00 | 39 | 1020.2 |
| 20260503041529 | 45 | 242 | 0.0 | 1.0 | 0.00 | 0.00 | 0.00 | 38 | 1020.6 |
| 20260503041220 | 46 | 244 | 0.0 | 1.0 | 0.00 | 0.00 | 0.00 | 38 | 1020.2 |
| 20260503040713 | 46 | 244 | 0.0 | 1.0 | 0.00 | 0.00 | 0.00 | 37 | 1020.2 |
| 20260503040208 | 47 | 244 | 0.0 | 0.0 | 0.00 | 0.00 | 0.00 | 37 | 1020.1 |
| 20260503040020 | 46 | 242 | 0.0 | 0.0 | 0.00 | 0.00 | 0.00 | 36 | 1020.8 |
| 20260503035702 | 47 | 244 | 0.0 | 0.0 | 0.00 | 0.00 | 0.00 | 35 | 1020.1 |
| 20260503035156 | 48 | 244 | 0.0 | 0.0 | 0.00 | 0.00 | 0.00 | 35 | 1020.1 |
| 20260503034650 | 49 | 244 | 0.0 | 0.0 | 0.00 | 0.00 | 0.00 | 32 | 1020.1 |
| 20260503034534 | 48 | 241 | 0.0 | 0.0 | 0.00 | 0.00 | 0.00 | 32 | 1020.6 |
| 20260503034143 | 49 | 243 | 0.0 | 0.0 | 0.00 | 0.00 | 0.00 | 32 | 1019.9 |
| 20260503033637 | 50 | 243 | 1.0 | 2.0 | 0.00 | 0.00 | 0.00 | 30 | 1019.8 |
| 20260503033132 | 50 | 243 | 1.0 | 2.0 | 0.00 | 0.00 | 0.00 | 29 | 1019.8 |
| 20260503033007 | 49 | 252 | 1.0 | 2.0 | 0.00 | 0.00 | 0.00 | 29 | 1020.5 |
| 20260503032626 | 50 | 91 | 0.0 | 2.0 | 0.00 | 0.00 | 0.00 | 29 | 1019.7 |
| 20260503032120 | 50 | 91 | 1.0 | 2.0 | 0.00 | 0.00 | 0.00 | 28 | 1019.8 |
| 20260503031513 | 50 | 92 | 0.0 | 3.0 | 0.00 | 0.00 | 0.00 | 28 | 1020.4 |
| 20260503031108 | 51 | 104 | 1.0 | 3.0 | 0.00 | 0.00 | 0.00 | 28 | 1019.7 |
| 20260503030602 | 51 | 115 | 1.0 | 2.0 | 0.00 | 0.00 | 0.00 | 28 | 1019.6 |
| 20260503030056 | 51 | 91 | 1.0 | 3.0 | 0.00 | 0.00 | 0.00 | 28 | 1019.6 |
| 20260503030015 | 51 | 95 | 0.0 | 3.0 | 0.00 | 0.00 | 0.00 | 27 | 1020.3 |
| 20260503025044 | 52 | 90 | 1.0 | 4.0 | 0.00 | 0.00 | 0.00 | 28 | 1019.5 |
| 20260503024538 | 52 | 110 | 2.0 | 4.0 | 0.00 | 0.00 | 0.00 | 28 | 1019.5 |
| 20260503024523 | 51 | 111 | 2.0 | 4.0 | 0.00 | 0.00 | 0.00 | 27 | 1020.2 |
| 20260503024032 | 52 | 97 | 2.0 | 5.0 | 0.00 | 0.00 | 0.00 | 28 | 1019.5 |